TimeCDT,TemperatureF,Dew PointF,Humidity,Sea Level PressureIn,VisibilityMPH,Wind Direction,Wind SpeedMPH,Gust SpeedMPH,PrecipitationIn,Events,Conditions,WindDirDegrees,DateUTC
12:55 AM,45.7,40.8,83,29.83,10.0,West,4.6,-,N/A,,Clear,280,2012-09-20 05:55:00
1:55 AM,45.5,40.6,83,29.83,10.0,West,4.6,-,N/A,,Clear,260,2012-09-20 06:55:00
2:55 AM,40.5,37.6,89,29.82,10.0,Calm,Calm,-,N/A,,Clear,0,2012-09-20 07:55:00
3:55 AM,46.6,40.1,78,29.82,10.0,WSW,6.9,-,N/A,,Clear,250,2012-09-20 08:55:00
4:55 AM,43.3,38.1,82,29.82,10.0,West,6.9,-,N/A,,Clear,270,2012-09-20 09:55:00
5:55 AM,47.8,40.8,77,29.83,10.0,West,8.1,-,N/A,,Clear,270,2012-09-20 10:55:00
6:55 AM,46.4,39.2,76,29.85,10.0,West,8.1,-,N/A,,Scattered Clouds,270,2012-09-20 11:55:00
7:55 AM,48.2,41.0,76,29.86,10.0,West,8.1,-,N/A,,Mostly Cloudy,280,2012-09-20 12:55:00
8:55 AM,51.8,41.0,67,29.87,10.0,West,11.5,-,N/A,,Mostly Cloudy,270,2012-09-20 13:55:00
9:55 AM,55.4,41.0,58,29.88,10.0,West,15.0,-,N/A,,Overcast,270,2012-09-20 14:55:00
10:55 AM,57.2,42.8,59,29.87,10.0,West,13.8,-,N/A,,Mostly Cloudy,270,2012-09-20 15:55:00
11:55 AM,60.8,42.8,52,29.86,10.0,West,13.8,-,N/A,,Mostly Cloudy,270,2012-09-20 16:55:00
12:55 PM,60.8,41.0,48,29.87,10.0,WNW,15.0,24.2,N/A,,Mostly Cloudy,290,2012-09-20 17:55:00
1:55 PM,60.8,41.0,48,29.87,10.0,WNW,13.8,20.7,N/A,,Mostly Cloudy,290,2012-09-20 18:55:00
2:55 PM,60.8,39.2,45,29.88,10.0,West,15.0,23.0,N/A,,Mostly Cloudy,270,2012-09-20 19:55:00
3:55 PM,62.6,37.4,39,29.87,10.0,West,16.1,-,N/A,,Mostly Cloudy,270,2012-09-20 20:55:00
4:55 PM,62.2,36.3,38,29.88,10.0,West,15.0,-,N/A,,Mostly Cloudy,280,2012-09-20 21:55:00
5:55 PM,59.0,35.6,42,29.88,10.0,West,10.4,-,N/A,,Partly Cloudy,280,2012-09-20 22:55:00
6:55 PM,50.0,37.4,62,29.89,10.0,SW,3.5,-,N/A,,Partly Cloudy,230,2012-09-20 23:55:00
7:55 PM,46.4,35.6,66,29.91,10.0,West,3.5,-,N/A,,Scattered Clouds,270,2012-09-21 00:55:00
8:55 PM,42.8,37.4,81,29.91,10.0,Calm,Calm,-,N/A,,Mostly Cloudy,0,2012-09-21 01:55:00
9:55 PM,39.2,35.6,87,29.91,10.0,Calm,Calm,-,N/A,,Mostly Cloudy,0,2012-09-21 02:55:00
10:55 PM,39.2,35.6,87,29.91,10.0,Calm,Calm,-,N/A,,Mostly Cloudy,0,2012-09-21 03:55:00
11:55 PM,37.2,35.4,93,29.90,10.0,Calm,Calm,-,N/A,,Clear,0,2012-09-21 04:55:00